DW8219 Weather Reports


Display with metric or nautical units.
time (UTC)temp
F
wind
direction
speed
MPH
gust
MPH
rain 1hr
in
rain 24hr
in
rain mn
in
humidity
%
barometer
mb
20260504172904 70 248 10.0 20.0 0.00 0.00 0.00 35 1009.3
20260504172404 70 267 7.0 12.0 0.00 0.00 0.00 39 1009.4
20260504171904 69 246 6.0 15.0 0.00 0.00 0.00 35 1009.5
20260504171405 69 217 6.0 16.0 0.00 0.00 0.00 36 1009.5
20260504170905 70 226 9.0 15.0 0.00 0.00 0.00 38 1009.5
20260504170404 69 211 12.0 23.0 0.00 0.00 0.00 35 1009.7
20260504160405 68 230 7.0 16.0 0.00 0.00 0.00 37 1010.5
20260504150904 65 202 7.0 12.0 0.00 0.00 0.00 38 1011.0
20260504140404 61 235 11.0 18.0 0.00 0.00 0.00 43 1011.4
20260504130405 57 210 6.0 10.0 0.00 0.00 0.00 48 1012.0
20260504110404 49 209 4.0 8.0 0.00 0.00 0.00 53 1012.2
20260504100404 47 188 1.0 3.0 0.00 0.00 0.00 57 1012.0
20260504081904 49 207 1.0 3.0 0.00 0.00 0.00 50 1011.7
20260504080904 49 231 1.0 5.0 0.00 0.00 0.00 49 1011.6
20260504080404 50 217 2.0 7.0 0.00 0.00 0.00 48 1011.7
20260504050405 50 231 6.0 10.0 0.00 0.00 0.00 47 1011.0
20260504045404 51 221 6.0 12.0 0.00 0.00 0.00 47 1011.0
20260504044904 51 223 7.0 13.0 0.00 0.00 0.00 47 1011.0
20260504044404 51 215 6.0 12.0 0.00 0.00 0.00 46 1011.0
20260504043405 51 218 5.0 12.0 0.00 0.00 0.00 46 1010.9
20260504042904 51 242 6.0 10.0 0.00 0.00 0.00 46 1010.8
20260504042404 51 230 6.0 12.0 0.00 0.00 0.00 46 1010.8
20260504041904 51 230 6.0 10.0 0.00 0.00 0.00 46 1010.6
20260504041404 51 226 6.0 10.0 0.00 0.00 0.00 46 1010.6
20260504040905 51 220 5.0 9.0 0.00 0.00 0.00 46 1010.6
20260504040405 51 221 5.0 10.0 0.00 0.00 0.00 46 1010.7
20260504035905 51 235 3.0 9.0 0.00 0.00 0.00 46 1010.7
20260504035406 51 219 5.0 9.0 0.00 0.00 0.00 46 1010.7
20260504034904 51 233 3.0 8.0 0.00 0.00 0.00 46 1010.7
20260504034404 51 231 4.0 8.0 0.00 0.00 0.00 45 1010.6
20260504033404 51 234 3.0 7.0 0.00 0.00 0.00 45 1010.7
20260504032905 51 228 2.0 7.0 0.00 0.00 0.00 45 1010.7
20260504031905 51 221 2.0 6.0 0.00 0.00 0.00 44 1010.6
20260504031405 51 232 1.0 8.0 0.00 0.00 0.00 44 1010.6
20260504030406 51 232 2.0 6.0 0.00 0.00 0.00 44 1010.6
20260504025905 51 216 4.0 8.0 0.00 0.00 0.00 44 1010.6
20260504025405 51 214 4.0 9.0 0.00 0.00 0.00 45 1010.6
20260504024905 51 224 0.0 5.0 0.00 0.00 0.00 45 1010.6
20260504024404 51 232 0.0 1.0 0.00 0.00 0.00 43 1010.6
20260504023906 51 227 0.0 1.0 0.00 0.00 0.00 43 1010.6
20260504023403 52 221 1.0 3.0 0.00 0.00 0.00 42 1010.6
20260504022904 52 227 1.0 7.0 0.00 0.00 0.00 41 1010.6
20260504022404 52 222 0.0 6.0 0.00 0.00 0.00 41 1010.7
20260504021404 52 230 1.0 5.0 0.00 0.00 0.00 40 1010.7
20260504020904 52 233 1.0 6.0 0.00 0.00 0.00 40 1010.7
20260504020404 52 223 0.0 1.0 0.00 0.00 0.00 40 1010.7
20260504015903 52 212 0.0 0.0 0.00 0.00 0.00 40 1010.6
20260504014904 52 223 0.0 1.0 0.00 0.00 0.00 40 1010.6
20260504013904 53 210 0.0 0.0 0.00 0.00 0.00 39 1010.5
20260504012905 52 225 0.0 0.0 0.00 0.00 0.00 40 1010.4
20260504012404 52 238 0.0 0.0 0.00 0.00 0.00 41 1010.4
20260504011404 52 238 0.0 0.0 0.00 0.00 0.00 41 1010.3
20260504010904 53 238 0.0 0.0 0.00 0.00 0.00 40 1010.2
20260504010403 52 263 0.0 0.0 0.00 0.00 0.00 41 1010.2
20260504005904 53 268 0.0 0.0 0.00 0.00 0.00 42 1010.0
20260504004905 53 268 0.0 0.0 0.00 0.00 0.00 39 1010.0
20260504004404 54 268 0.0 0.0 0.00 0.00 0.00 38 1009.9
20260504003904 54 268 0.0 0.0 0.00 0.00 0.00 37 1009.8
20260504003405 55 268 0.0 0.0 0.00 0.00 0.00 36 1009.8
20260504002904 55 267 0.0 6.0 0.00 0.00 0.00 35 1009.8
20260504002405 55 270 0.0 3.0 0.00 0.00 0.00 35 1009.6
20260504001904 56 279 1.0 7.0 0.00 0.00 0.00 34 1009.5
20260504000406 57 282 1.0 7.0 0.00 0.00 0.00 32 1009.2
20260503235904 57 287 4.0 9.0 0.00 0.00 0.00 32 1009.2
20260503235405 57 252 3.0 10.0 0.00 0.00 0.00 31 1009.2
20260503234904 57 249 0.0 8.0 0.00 0.00 0.00 33 1009.1
20260503234405 57 260 2.0 10.0 0.00 0.00 0.00 31 1009.0
20260503233905 57 247 3.0 16.0 0.00 0.00 0.00 30 1009.0
20260503233404 58 246 5.0 14.0 0.00 0.00 0.00 30 1008.8
20260503232904 58 294 4.0 13.0 0.00 0.00 0.00 30 1008.8
20260503232405 58 285 5.0 13.0 0.00 0.00 0.00 31 1008.8
20260503231905 58 286 1.0 14.0 0.00 0.00 0.00 30 1008.8
20260503231404 57 281 7.0 13.0 0.00 0.00 0.00 31 1008.8
20260503230904 58 302 3.0 13.0 0.00 0.00 0.00 29 1008.7
20260503230405 58 272 3.0 13.0 0.00 0.00 0.00 29 1008.7
20260503225906 58 290 5.0 16.0 0.00 0.00 0.00 30 1008.7
20260503225405 58 281 4.0 13.0 0.00 0.00 0.00 29 1008.6
20260503224904 58 293 3.0 12.0 0.00 0.00 0.00 29 1008.5
20260503224405 58 319 3.0 14.0 0.00 0.00 0.00 28 1008.5
20260503223405 59 308 7.0 23.0 0.00 0.00 0.00 29 1008.6
20260503222405 59 291 4.0 16.0 0.00 0.00 0.00 28 1008.6
20260503221905 59 305 8.0 14.0 0.00 0.00 0.00 28 1008.6
20260503221404 59 294 1.0 14.0 0.00 0.00 0.00 30 1008.6
20260503220905 59 305 7.0 20.0 0.00 0.00 0.00 28 1008.5
20260503220404 59 280 2.0 14.0 0.00 0.00 0.00 29 1008.5
20260503215906 59 327 5.0 20.0 0.00 0.00 0.00 28 1008.7
20260503215404 59 334 5.0 12.0 0.00 0.00 0.00 28 1008.8
20260503214905 59 291 6.0 18.0 0.00 0.00 0.00 27 1008.8
20260503214404 59 287 5.0 20.0 0.00 0.00 0.00 28 1008.7
20260503213904 59 273 9.0 16.0 0.00 0.00 0.00 28 1008.7
20260503213405 59 278 8.0 17.0 0.00 0.00 0.00 28 1008.6
20260503212905 59 283 6.0 20.0 0.00 0.00 0.00 28 1008.6
20260503212404 60 297 6.0 16.0 0.00 0.00 0.00 29 1008.5
20260503211906 59 310 4.0 18.0 0.00 0.00 0.00 31 1008.5
20260503211404 59 267 8.0 21.0 0.00 0.00 0.00 27 1008.5
20260503210404 59 257 9.0 23.0 0.00 0.00 0.00 28 1008.4
20260503205905 59 285 11.0 23.0 0.00 0.00 0.00 29 1008.4
20260503204905 59 280 9.0 20.0 0.00 0.00 0.00 28 1008.4
20260503204405 60 275 6.0 20.0 0.00 0.00 0.00 30 1008.5
20260503203905 60 288 6.0 18.0 0.00 0.00 0.00 29 1008.4
20260503202904 59 314 6.0 16.0 0.00 0.00 0.00 32 1008.6
20260503202403 58 272 10.0 16.0 0.00 0.00 0.00 29 1008.6
20260503201904 58 327 10.0 25.0 0.00 0.00 0.00 30 1008.6
20260503201404 59 302 11.0 24.0 0.00 0.00 0.00 30 1008.6
20260503200904 59 297 9.0 25.0 0.00 0.00 0.00 28 1008.6
20260503195904 59 281 7.0 18.0 0.00 0.00 0.00 29 1008.8
20260503194903 58 294 7.0 21.0 0.00 0.00 0.00 32 1008.9
20260503194404 58 285 8.0 17.0 0.00 0.00 0.00 32 1008.8
20260503193904 57 297 12.0 21.0 0.00 0.00 0.00 33 1008.9
20260503192404 58 317 9.0 20.0 0.00 0.00 0.00 34 1009.2
20260503191904 57 290 9.0 18.0 0.00 0.00 0.00 33 1009.1
20260503191404 57 270 10.0 21.0 0.00 0.00 0.00 31 1009.1
20260503190904 58 290 5.0 16.0 0.00 0.00 0.00 38 1009.2
20260503190404 57 304 9.0 20.0 0.00 0.00 0.00 35 1009.2
20260503185404 60 272 6.0 20.0 0.00 0.00 0.00 35 1009.1
20260503184905 57 321 5.0 17.0 0.00 0.00 0.00 37 1009.3
20260503184404 57 301 9.0 20.0 0.00 0.00 0.00 34 1009.2
20260503183904 57 338 8.0 20.0 0.00 0.00 0.00 37 1009.3
20260503182904 58 279 10.0 20.0 0.00 0.00 0.00 35 1009.3
20260503182405 57 279 6.0 25.0 0.00 0.00 0.00 38 1009.3
20260503181904 57 308 7.0 16.0 0.00 0.00 0.00 36 1009.4
20260503181405 57 306 9.0 18.0 0.00 0.00 0.00 41 1009.5
20260503180904 55 306 7.0 14.0 0.00 0.00 0.00 40 1009.5
20260503180404 56 315 6.0 16.0 0.00 0.00 0.00 37 1009.7
20260503174405 55 276 6.0 17.0 0.00 0.00 0.00 41 1009.9
20260503173904 54 319 9.0 20.0 0.00 0.00 0.00 42 1009.8
20260503173404 53 276 7.0 14.0 0.00 0.00 0.00 39 1009.9